Погода в Сливене

Болгария     42°39′50″N   26°20′21″E
темп.,
°C
ветер,
м/с
пор.,
м/с
влажн.,
%
обл.,
%
осадки,
мм/ч
давл.,
гПа
погр.,
м
9 мая, вс
вс900:00+6ссз38570 0.0 1022327
03:00+4ссз34681 0.0 102476
06:00+3ссз33745 0.0 102642
09:00+10вюв22555 0.0 1026673
12:00+12ююв335459 0.0 10261557
15:00+14ю335251 0.1 10261403
18:00+13юв335317 0.0 10251226
21:00+6в22880 0.0 102829
10 мая, пн
пн1000:00+4в12845 0.0 102928
03:00+3ю01812 0.0 102819
06:00+3ю01690 0.0 102714
09:00+9ююв23500 0.0 1026414
12:00+13ююв33470 0.0 1025861
15:00+15юв33500 0.0 10231108
18:00+13юв33570 0.0 1022787
21:00+5вюв12870 0.0 102418
11 мая, вт
вт1100:00+4ю01790 0.0 102416
03:00+3ююз01700 0.0 102313
06:00+3ююз01780 0.0 102213
09:00+9ю22593 0.0 1021336
12:00+14ю32485 0.0 1019741
15:00+16ююв32485 0.0 1017973
18:00+15ююв33585 0.0 1016721
21:00+7вюв12855 0.0 101717
12 мая, ср
ср1200:00+6юв11620 0.0 101717
03:00+5юз01535 0.0 101412
06:00+5з016264 0.0 101312
09:00+11ю2262100 0.0 1011253
12:00+15ю35540 0.0 1010628
15:00+17ю3554100 0.0 1009849
18:00+16ю585553 0.0 1007846
21:00+10вюв2789100 0.1 1008165
13 мая, чт
чт1300:00+8в249381 0.1 100885
03:00+8всв119217 0.2 100811
06:00+10з0085100 0.1 100710
09:00+13ююз118065 0.1 1007255
12:00+15ю227552 0.4 1007576
15:00+18ю446544 1.0 10061189
18:00+17ю357542 0.9 1006876
21:00+13ссз229152 1.9 100712